[[{"header":{"parameterUnit":"m.s-1","parameterCategory":2,"la1":30.2991,"la2":30.254,"lo1":-89.0895,"lo2":-89.0444,"dy":0.0017,"dx":0.0017,"nx":28,"ny":28,"refTime":"2023-09-18T09:00:00:Z","depth":"0","parameterNumber":2,"parameterNumberName":"U-component_of_CURRENTS"},"data":[0,0,0,0,0,0,0,0,0,0,0,0,0,0,0,0,0,0,0,0,0,0,0,0,0,0,0,0,0,0,0,0,0,0,0,0,0,0,0,0,0,0,0,0,0,0,0,0,0,0,0,0,0,0,0,0,0,0,-0.2426,-0.2427,0,-0.2462,-0.2462,-0.2463,-0.2423,-0.2422,-0.2421,-0.2419,-0.2401,-0.2402,-0.2403,0,0,0,0,0,0,0,0,0,0,0,0,0,-0.2336,-0.2337,-0.2426,-0.2427,-0.2427,-0.2462,-0.2462,-0.2463,-0.2423,-0.2422,-0.242,-0.2419,-0.2401,-0.2402,-0.2403,0,0,0,0,0,0,0,0,0,0,0,0,0,-0.2372,-0.2338,-0.2426,-0.2414,-0.2413,-0.2462,-0.2462,-0.2463,-0.2424,-0.2422,-0.242,-0.2418,-0.2401,-0.2402,-0.2403,-0.2449,0,0,-0.2406,-0.2407,0,0,0,0,0,0,0,0,-0.237,-0.2375,-0.2415,-0.2415,-0.2414,-0.2438,-0.2424,-0.2456,-0.2424,-0.2417,-0.2419,-0.2417,-0.2412,-0.2412,-0.242,-0.2448,-0.2447,-0.2406,-0.2407,-0.2408,-0.2408,0,0,0,0,0,0,0,-0.2367,-0.2373,-0.2438,-0.2416,-0.2415,-0.2411,-0.2413,-0.243,-0.2422,-0.2418,-0.2416,-0.2424,-0.241,-0.242,-0.242,-0.2447,-0.2406,-0.2407,-0.2408,-0.2408,-0.2466,-0.2467,0,0,0,0,0,0,-0.2369,-0.2371,-0.2437,-0.2439,-0.2389,-0.2414,-0.2417,-0.2431,-0.2423,-0.2421,-0.2425,-0.2422,-0.2419,-0.2418,-0.2419,-0.2433,-0.2408,-0.2409,-0.2409,-0.2465,-0.2466,-0.2467,0,0,0,0,0,0,-0.2367,-0.2375,-0.2436,-0.2407,-0.2415,-0.2418,-0.2434,-0.2432,-0.2433,-0.243,-0.2426,-0.2426,-0.2417,-0.2417,-0.2427,-0.2433,-0.2409,-0.241,-0.2464,-0.2466,-0.2467,-0.2487,0,0,0,0,0,0,-0.2365,-0.2374,-0.2382,-0.2408,-0.2416,-0.2461,-0.2436,-0.2435,-0.2443,-0.2438,-0.243,-0.2426,-0.2416,-0.2426,-0.2429,-0.2434,-0.2411,-0.2463,-0.2465,-0.2466,-0.2485,-0.2489,-0.2492,0,0,0,0,0,-0.2361,-0.2379,-0.2382,-0.239,-0.2428,-0.2463,-0.2467,-0.246,-0.2444,-0.2452,-0.2443,-0.2426,-0.2438,-0.2428,-0.2431,-0.2437,-0.2462,-0.2464,-0.2466,-0.2484,-0.2488,-0.2492,0,0,0,0,0,0,-0.2339,-0.2378,-0.2382,-0.2408,-0.2433,-0.2456,-0.2464,-0.2465,-0.2467,-0.2457,-0.2445,-0.2442,-0.2451,-0.2449,-0.2439,-0.2459,-0.2445,-0.2448,-0.2458,-0.2462,-0.2465,-0.2456,-0.2412,0,0,0,0,0,-0.2343,-0.2362,-0.24,-0.2418,-0.2434,-0.2451,-0.2463,-0.2465,-0.2474,-0.2472,-0.2468,-0.2464,-0.2467,-0.2467,-0.2471,-0.2491,-0.2476,-0.2496,-0.2499,-0.2502,-0.2497,-0.2485,-0.2486,-0.2474,-0.2474,-0.2474,0,0,-0.2337,-0.2362,-0.2371,-0.2414,-0.2431,-0.2459,-0.2452,-0.2475,-0.2487,-0.2472,-0.2481,-0.2479,-0.2476,-0.2489,-0.2493,-0.2484,-0.2499,-0.2504,-0.2507,-0.25,-0.2487,-0.2488,-0.2489,-0.2475,-0.2475,-0.2475,0,0,-0.2338,-0.2362,-0.238,-0.2408,-0.2444,-0.2461,-0.2469,-0.2499,-0.2499,-0.2522,-0.2506,-0.2508,-0.2522,-0.2515,-0.2513,-0.2544,-0.2519,-0.2547,-0.2554,-0.2543,-0.2543,-0.2543,-0.2528,-0.2526,-0.2546,-0.2546,-0.2546,0,-0.2329,-0.2359,-0.2389,-0.2419,-0.2438,-0.2462,-0.2486,-0.2504,-0.2528,-0.2532,-0.2523,-0.2535,-0.2531,-0.2538,-0.2542,-0.2549,-0.2537,-0.2537,-0.2545,-0.2545,-0.2545,-0.2529,-0.2527,-0.2547,-0.2547,-0.2547,-0.2547,0,-0.2348,-0.2372,-0.2387,-0.243,-0.2457,-0.2482,-0.2518,-0.2537,-0.2542,-0.2553,-0.2565,-0.2564,-0.2564,-0.2569,-0.2563,-0.2565,-0.2555,-0.2551,-0.2531,-0.2547,-0.253,-0.2527,-0.2549,-0.2549,-0.2548,-0.2548,0,0,-0.2317,-0.2386,-0.2387,-0.2406,-0.2464,-0.2485,-0.252,-0.2552,-0.2563,-0.2581,-0.2588,-0.2595,-0.2589,-0.2588,-0.2583,-0.2575,-0.2564,-0.2562,-0.2561,-0.2539,-0.2533,-0.246,-0.245,-0.2559,-0.2559,-0.2559,-0.2522,0,-0.2315,-0.2359,-0.2399,-0.2433,-0.2457,-0.25,-0.253,-0.2563,-0.2581,-0.2598,-0.26,-0.2606,-0.2599,-0.2595,-0.2588,-0.2577,-0.2558,-0.2574,-0.2527,-0.2526,-0.2452,-0.2445,-0.2346,-0.2299,-0.252,-0.2519,-0.2519,0,-0.2312,-0.2342,-0.2374,-0.2432,-0.2447,-0.2472,-0.2515,-0.2544,-0.2583,-0.26,-0.2609,-0.2614,-0.2614,-0.26,-0.2578,-0.2588,-0.2556,-0.2542,-0.254,-0.2459,-0.2447,-0.2319,-0.2286,-0.2268,-0.2515,-0.2515,-0.2516,0,-0.2255,-0.232,-0.2337,-0.2358,-0.2432,-0.2448,-0.248,-0.253,-0.2554,-0.2588,-0.2607,-0.2614,-0.2611,-0.2588,-0.2561,-0.2568,-0.2526,-0.2532,-0.2433,-0.2428,-0.2327,-0.2313,-0.226,-0.2494,-0.2494,-0.2494,-0.2494,0,-0.2228,-0.2241,-0.2308,-0.2317,-0.2343,-0.2405,-0.243,-0.2472,-0.2522,-0.2547,-0.2588,-0.2601,-0.2605,-0.259,-0.2561,-0.2485,-0.2522,-0.2424,-0.2409,-0.2332,-0.2319,-0.2285,-0.2305,-0.2493,-0.2493,-0.2494,-0.2494,0,-0.2156,-0.2202,-0.2228,-0.2296,-0.2314,-0.2325,-0.2398,-0.2417,-0.248,-0.2512,-0.2522,-0.2581,-0.2559,-0.2549,-0.251,-0.247,-0.2367,-0.2374,-0.2281,-0.2254,-0.2138,-0.2163,-0.2087,-0.2029,-0.2261,-0.2259,-0.2257,0,-0.2122,-0.2125,-0.219,-0.2199,-0.2225,-0.2259,-0.2285,-0.2372,-0.2403,-0.2492,-0.25,-0.2509,-0.249,-0.2418,-0.2348,-0.2267,-0.2269,-0.2137,-0.2125,-0.2104,-0.2122,-0.2143,-0.2102,-0.2006,-0.2003,-0.2,-0.1997,0,-0.2046,-0.2069,-0.2087,-0.2111,-0.2135,-0.2168,-0.2214,-0.2241,-0.2341,-0.2371,-0.2399,-0.2388,-0.2343,-0.2221,-0.2131,-0.2077,-0.208,-0.207,-0.2072,-0.1927,-0.1925,-0.187,-0.2071,-0.197,-0.1973,-0.1975,-0.1976,-0.1978,-0.1976,-0.1972,-0.1992,-0.2002,-0.2031,-0.2045,-0.2029,-0.2097,-0.2118,-0.2137,-0.2225,-0.2176,-0.213,-0.1981,-0.193,-0.1807,-0.1864,-0.1755,-0.179,-0.1818,-0.1742,-0.1877,-0.1746,-0.1747,-0.1749,-0.175,-0.1751,0,-0.1875,-0.1875,-0.1882,-0.1887,-0.1863,-0.1919,-0.1951,-0.1913,-0.1888,-0.1946,-0.1932,-0.1895,-0.1775,-0.1752,-0.1639,-0.1561,-0.1535,-0.153,-0.1548,-0.1521,-0.1647,-0.1614,-0.142,-0.142,-0.142,-0.142,-0.142,-0.142,-0.1821,-0.1781,-0.1783,-0.1701,-0.17,-0.1626,-0.1609,-0.1578,-0.1588,-0.1538,-0.1541,-0.1589,-0.1581,-0.1655,-0.154,-0.146,-0.1436,-0.1376,-0.1414,-0.1525,-0.155,-0.1574,-0.1546,-0.1341,-0.1341,-0.1226,-0.1225,-0.1225]},{"header":{"parameterUnit":"m.s-1","parameterCategory":2,"la1":30.2991,"la2":30.254,"lo1":-89.0895,"lo2":-89.0444,"dy":0.0017,"dx":0.0017,"nx":28,"ny":28,"refTime":"2023-09-18T09:00:00:Z","depth":"0","parameterNumber":3,"parameterNumberName":"V-component_of_CURRENTS"},"data":[0,0,0,0,0,0,0,0,0,0,0,0,0,0,0,0,0,0,0,0,0,0,0,0,0,0,0,0,0,0,0,0,0,0,0,0,0,0,0,0,0,0,0,0,0,0,0,0,0,0,0,0,0,0,0,0,0,0,-0.0164,-0.0164,0,-0.0092,-0.0091,-0.009,-0.0028,-0.0027,-0.0026,-0.0026,0.0091,0.0094,0.0096,0,0,0,0,0,0,0,0,0,0,0,0,0,-0.0201,-0.0201,-0.0164,-0.0164,-0.0163,-0.0093,-0.0091,-0.009,-0.0028,-0.0027,-0.0026,-0.0026,0.009,0.0093,0.0096,0,0,0,0,0,0,0,0,0,0,0,0,0,-0.0162,-0.0201,-0.0165,-0.0124,-0.012,-0.0093,-0.0091,-0.009,-0.0028,-0.0027,-0.0026,-0.0025,0.0089,0.0093,0.0097,0.0103,0,0,0.0109,0.011,0,0,0,0,0,0,0,0,-0.0164,-0.016,-0.0131,-0.0127,-0.0122,-0.0069,-0.0061,-0.0024,-0.0028,-0.0061,-0.0026,-0.0025,0.004,0.0048,0.0061,0.0108,0.0113,0.0109,0.0111,0.0113,0.0114,0,0,0,0,0,0,0,-0.0167,-0.0163,-0.0134,-0.013,-0.0125,-0.0094,-0.0087,-0.0054,-0.0015,-0.0058,-0.0054,-0.0048,0.0043,0.0057,0.0064,0.0115,0.0109,0.0112,0.0115,0.0116,0.0198,0.0198,0,0,0,0,0,0,-0.0182,-0.0166,-0.0137,-0.0132,-0.0143,-0.0094,-0.0087,-0.0086,-0.0016,-0.0005,-0.0049,-0.0046,0.005,0.006,0.0069,0.0093,0.0113,0.0116,0.0119,0.0198,0.0198,0.0198,0,0,0,0,0,0,-0.0183,-0.0181,-0.014,-0.0148,-0.0141,-0.0095,-0.0094,-0.0085,-0.0071,-0.001,0.0003,-0.0044,0.0051,0.0063,0.0096,0.0097,0.0118,0.0122,0.0198,0.0198,0.0198,0.0133,0,0,0,0,0,0,-0.0185,-0.0182,-0.0187,-0.015,-0.0141,-0.0131,-0.0095,-0.0084,-0.0069,-0.0064,-0.0001,0.0011,0.0053,0.009,0.01,0.0103,0.0125,0.0198,0.0198,0.0198,0.0135,0.0131,0.0127,0,0,0,0,0,-0.0186,-0.0203,-0.0188,-0.0184,-0.015,-0.0132,-0.0125,-0.0088,-0.007,-0.007,-0.0026,0.0009,0.0096,0.0093,0.0105,0.0109,0.0198,0.0198,0.0198,0.0137,0.0131,0.0127,0,0,0,0,0,0,-0.0225,-0.0197,-0.018,-0.0187,-0.0164,-0.0122,-0.0121,-0.0096,-0.0062,-0.0057,0.0004,0.0018,0.0048,0.0084,0.0079,0.0132,0.0154,0.0156,0.0104,0.0099,0.0095,0.0084,0.0128,0,0,0,0,0,-0.0237,-0.024,-0.0206,-0.0213,-0.0205,-0.0164,-0.0153,-0.0129,-0.0094,-0.0078,-0.0033,0.0015,0.0055,0.008,0.0118,0.0144,0.0183,0.0156,0.0151,0.0147,0.0146,0.0201,0.0201,0.0197,0.0197,0.0197,0,0,-0.0254,-0.024,-0.0241,-0.0221,-0.02,-0.0195,-0.0155,-0.0147,-0.0136,-0.0072,-0.0046,-0.0003,0.0057,0.0087,0.0105,0.0119,0.0168,0.0147,0.0143,0.0144,0.0201,0.0201,0.0201,0.0196,0.0196,0.0196,0,0,-0.0295,-0.0278,-0.0294,-0.0277,-0.0254,-0.0226,-0.0228,-0.0189,-0.0165,-0.0139,-0.0088,-0.0045,0.0011,0.006,0.0091,0.0085,0.0139,0.0097,0.0073,0.0125,0.0126,0.0127,0.0172,0.0178,0.01,0.01,0.01,0,-0.0315,-0.0328,-0.0296,-0.0304,-0.0295,-0.0245,-0.0256,-0.0226,-0.0179,-0.0159,-0.0141,-0.0046,0.0001,0.0054,0.0054,0.0076,0.011,0.0086,0.0119,0.0121,0.0123,0.0169,0.0177,0.0097,0.0097,0.0097,0.0098,0,-0.0362,-0.037,-0.038,-0.0369,-0.0354,-0.0357,-0.0312,-0.0293,-0.0259,-0.0219,-0.0168,-0.0099,-0.0039,-0.0017,0.0018,0.0061,0.008,0.0101,0.0129,0.012,0.0169,0.0178,0.0092,0.0093,0.0094,0.0095,0,0,-0.0414,-0.0413,-0.0416,-0.0423,-0.0388,-0.0386,-0.0365,-0.0331,-0.0316,-0.0258,-0.0226,-0.015,-0.0106,-0.0068,-0.0012,0.0037,0.0082,0.0071,0.0075,0.0109,0.0193,0.0241,0.0256,0.0107,0.0109,0.011,0.0218,0,-0.046,-0.0495,-0.0474,-0.0499,-0.0511,-0.0459,-0.0443,-0.0401,-0.0353,-0.0309,-0.0223,-0.0175,-0.0126,-0.0097,-0.004,0.0054,0.0103,0.0051,0.0202,0.0207,0.0246,0.0267,0.0296,0.0399,0.0227,0.0229,0.023,0,-0.0509,-0.0526,-0.0561,-0.0563,-0.0563,-0.0564,-0.0528,-0.0507,-0.0425,-0.0385,-0.0314,-0.0243,-0.0151,-0.0117,0.0041,0.0004,0.0088,0.016,0.0166,0.0241,0.0272,0.0383,0.0422,0.054,0.0244,0.0243,0.0242,0,-0.0562,-0.0586,-0.0618,-0.0617,-0.0606,-0.061,-0.0596,-0.0531,-0.0512,-0.0429,-0.0399,-0.0282,-0.0216,-0.0098,0.0061,0.0048,0.0235,0.0238,0.0361,0.0365,0.0436,0.0445,0.0605,0.034,0.034,0.0339,0.0339,0,-0.0615,-0.0642,-0.065,-0.0669,-0.0705,-0.0667,-0.0676,-0.0644,-0.0583,-0.055,-0.0443,-0.0381,-0.0209,-0.0075,0.0053,0.0247,0.0234,0.0365,0.0402,0.0414,0.0419,0.0563,0.0607,0.0343,0.0342,0.0342,0.0341,0,-0.0667,-0.0668,-0.0714,-0.0726,-0.0734,-0.0757,-0.0748,-0.0744,-0.0677,-0.0629,-0.0604,-0.0448,-0.0261,-0.0079,0.0134,0.0244,0.0503,0.0481,0.0483,0.0518,0.0726,0.0763,0.0962,0.1047,0.0625,0.0627,0.0628,0,-0.0696,-0.0724,-0.077,-0.0801,-0.0814,-0.0836,-0.0846,-0.0801,-0.0786,-0.0657,-0.0636,-0.0448,-0.0289,0.0043,0.0275,0.0518,0.0607,0.0669,0.0652,0.0756,0.0826,0.0844,0.0902,0.0719,0.0722,0.0723,0.0725,0,-0.0752,-0.0767,-0.0806,-0.0875,-0.0909,-0.094,-0.0947,-0.0949,-0.0866,-0.0796,-0.0654,-0.0514,-0.0172,0.0143,0.0456,0.059,0.0766,0.0713,0.0832,0.0926,0.0949,0.1042,0.0619,0.0741,0.074,0.0738,0.0738,0.0737,-0.0789,-0.0835,-0.0886,-0.0948,-0.099,-0.1025,-0.1035,-0.1003,-0.0955,-0.0812,-0.0671,-0.0422,0.0021,0.0482,0.0648,0.0968,0.0925,0.1043,0.1084,0.1095,0.1174,0.0784,0.0939,0.0938,0.0938,0.0938,0.0937,0,-0.0832,-0.0883,-0.0952,-0.1021,-0.1071,-0.1075,-0.1085,-0.105,-0.0969,-0.0795,-0.0613,-0.0118,0.0314,0.0699,0.1169,0.1331,0.1357,0.1394,0.1428,0.1473,0.1145,0.1145,0.134,0.134,0.134,0.134,0.1339,0.1339,-0.0856,-0.0932,-0.0972,-0.1066,-0.1108,-0.1135,-0.1131,-0.1047,-0.0918,-0.0608,-0.0321,-0.0078,0.0463,0.1222,0.1638,0.1661,0.1798,0.177,0.1854,0.1616,0.1586,0.1557,0.1569,0.185,0.1851,0.217,0.2173,0.2175]}],[{"header":{"parameterUnit":"m.s-1","parameterCategory":2,"la1":30.2991,"la2":30.254,"lo1":-89.0895,"lo2":-89.0444,"dy":0.0017,"dx":0.0017,"nx":28,"ny":28,"refTime":"2023-09-18T09:00:00:Z","depth":"2","parameterNumber":2,"parameterNumberName":"U-component_of_CURRENTS"},"data":[0,0,0,0,0,0,0,0,0,0,0,0,0,0,0,0,0,0,0,0,0,0,0,0,0,0,0,0,0,0,0,0,0,0,0,0,0,0,0,0,0,0,0,0,0,0,0,0,0,0,0,0,0,0,0,0,0,0,-0.2172,-0.2172,0,-0.2212,-0.2212,-0.2213,-0.2184,-0.2182,-0.2181,-0.218,-0.2176,-0.2177,-0.2178,0,0,0,0,0,0,0,0,0,0,0,0,0,-0.2083,-0.2084,-0.2172,-0.2172,-0.2173,-0.2212,-0.2212,-0.2213,-0.2184,-0.2182,-0.2181,-0.218,-0.2176,-0.2177,-0.2178,0,0,0,0,0,0,0,0,0,0,0,0,0,-0.212,-0.2085,-0.2171,-0.2164,-0.2164,-0.2212,-0.2212,-0.2213,-0.2184,-0.2182,-0.2181,-0.2179,-0.2176,-0.2177,-0.2178,-0.2221,0,0,-0.2183,-0.2183,0,0,0,0,0,0,0,0,-0.2118,-0.2123,-0.2165,-0.2165,-0.2165,-0.2193,-0.218,-0.2214,-0.2184,-0.2175,-0.218,-0.2178,-0.218,-0.2181,-0.219,-0.2221,-0.222,-0.2183,-0.2184,-0.2184,-0.2185,0,0,0,0,0,0,0,-0.2116,-0.2122,-0.2186,-0.2166,-0.2166,-0.2164,-0.2167,-0.2186,-0.2184,-0.2175,-0.2174,-0.2182,-0.2179,-0.2189,-0.219,-0.222,-0.2183,-0.2184,-0.2185,-0.2186,-0.225,-0.225,0,0,0,0,0,0,-0.2116,-0.2119,-0.2184,-0.2187,-0.2139,-0.2167,-0.2171,-0.2184,-0.2185,-0.2184,-0.2183,-0.218,-0.2188,-0.2188,-0.219,-0.2211,-0.2184,-0.2186,-0.2186,-0.2249,-0.225,-0.2251,0,0,0,0,0,0,-0.2114,-0.2122,-0.2183,-0.2155,-0.2163,-0.2171,-0.2186,-0.2186,-0.2191,-0.2192,-0.2189,-0.2188,-0.2186,-0.2188,-0.2203,-0.2211,-0.2186,-0.2188,-0.2248,-0.2249,-0.225,-0.2271,0,0,0,0,0,0,-0.2112,-0.2121,-0.213,-0.2155,-0.2165,-0.221,-0.2188,-0.2188,-0.22,-0.2196,-0.2195,-0.2193,-0.2185,-0.2201,-0.2204,-0.2213,-0.2189,-0.2247,-0.2248,-0.225,-0.227,-0.2273,-0.2276,0,0,0,0,0,-0.2108,-0.2125,-0.213,-0.2138,-0.2177,-0.2211,-0.2215,-0.2214,-0.2201,-0.221,-0.2207,-0.2193,-0.2213,-0.2203,-0.2207,-0.2216,-0.2246,-0.2248,-0.225,-0.2268,-0.2273,-0.2276,0,0,0,0,0,0,-0.2088,-0.2125,-0.2131,-0.2157,-0.2183,-0.2206,-0.2216,-0.222,-0.2227,-0.2219,-0.2211,-0.221,-0.2225,-0.2224,-0.2214,-0.2239,-0.2225,-0.2228,-0.2238,-0.2242,-0.2246,-0.2237,-0.219,0,0,0,0,0,-0.2092,-0.2112,-0.2148,-0.2167,-0.2183,-0.2202,-0.2215,-0.2219,-0.2231,-0.2232,-0.2233,-0.2234,-0.224,-0.2243,-0.225,-0.2273,-0.2258,-0.2279,-0.2283,-0.2285,-0.2282,-0.2272,-0.2274,-0.2257,-0.2257,-0.2257,0,0,-0.2088,-0.2112,-0.2122,-0.2164,-0.2182,-0.221,-0.2205,-0.2229,-0.2244,-0.2233,-0.2248,-0.225,-0.225,-0.2266,-0.2272,-0.2264,-0.2284,-0.2288,-0.229,-0.2285,-0.2274,-0.2275,-0.2277,-0.2258,-0.2258,-0.2258,0,0,-0.2091,-0.2115,-0.2133,-0.2161,-0.2197,-0.2214,-0.2224,-0.2255,-0.2259,-0.2285,-0.2273,-0.2279,-0.2298,-0.2293,-0.2294,-0.2326,-0.2303,-0.233,-0.2339,-0.233,-0.2331,-0.2331,-0.2315,-0.2314,-0.233,-0.233,-0.233,0,-0.2084,-0.2114,-0.2143,-0.2172,-0.2191,-0.2217,-0.2241,-0.2261,-0.2289,-0.2296,-0.2289,-0.2309,-0.2308,-0.2319,-0.2324,-0.2331,-0.232,-0.2322,-0.2333,-0.2333,-0.2333,-0.2316,-0.2315,-0.2331,-0.2331,-0.2331,-0.2331,0,-0.2104,-0.2129,-0.2144,-0.2186,-0.2214,-0.2239,-0.2275,-0.2297,-0.2307,-0.2321,-0.2338,-0.234,-0.2345,-0.235,-0.2346,-0.2351,-0.2341,-0.2338,-0.2318,-0.2336,-0.2317,-0.2315,-0.2333,-0.2332,-0.2332,-0.2332,0,0,-0.2076,-0.2144,-0.2145,-0.2165,-0.2222,-0.2244,-0.228,-0.2316,-0.2331,-0.2353,-0.2365,-0.2376,-0.2372,-0.2373,-0.237,-0.2363,-0.2355,-0.2352,-0.235,-0.2328,-0.2328,-0.2255,-0.2246,-0.2353,-0.2352,-0.2352,-0.2315,0,-0.2077,-0.212,-0.2158,-0.2195,-0.2219,-0.2262,-0.2295,-0.233,-0.2352,-0.2374,-0.2378,-0.2389,-0.2383,-0.2383,-0.2378,-0.2366,-0.2351,-0.2365,-0.2321,-0.2319,-0.2246,-0.2241,-0.2083,-0.203,-0.2313,-0.2312,-0.2312,0,-0.2075,-0.2104,-0.2138,-0.2197,-0.2213,-0.224,-0.2287,-0.2318,-0.2361,-0.238,-0.2394,-0.2402,-0.2404,-0.2392,-0.2371,-0.238,-0.2352,-0.2337,-0.2335,-0.2256,-0.2242,-0.2059,-0.2015,-0.2308,-0.2309,-0.2309,-0.2309,0,-0.2021,-0.2086,-0.2106,-0.2127,-0.2202,-0.2221,-0.2255,-0.2308,-0.2334,-0.2373,-0.2393,-0.2404,-0.2403,-0.2383,-0.2357,-0.2363,-0.2324,-0.2328,-0.2233,-0.2228,-0.2077,-0.2058,-0.2297,-0.2297,-0.2297,-0.2297,-0.2297,0,-0.1996,-0.2012,-0.2081,-0.2091,-0.2122,-0.2183,-0.2214,-0.2257,-0.231,-0.2334,-0.2379,-0.2391,-0.24,-0.2385,-0.2358,-0.2283,-0.232,-0.2224,-0.2209,-0.208,-0.2063,-0.2294,-0.2295,-0.2295,-0.2296,-0.2296,-0.2296,0,-0.1929,-0.1976,-0.2006,-0.2076,-0.2095,-0.2111,-0.2185,-0.2206,-0.227,-0.2302,-0.2314,-0.2372,-0.235,-0.2344,-0.2309,-0.2269,-0.2217,-0.2177,-0.2023,-0.1989,-0.2129,-0.2131,-0.2069,-0.2066,-0.2064,-0.2062,-0.206,0,-0.1897,-0.1904,-0.1972,-0.1984,-0.2012,-0.205,-0.2077,-0.2164,-0.2193,-0.228,-0.2285,-0.2298,-0.2274,-0.2206,-0.2137,-0.2059,-0.2133,-0.1879,-0.1858,-0.2112,-0.2104,-0.211,-0.2115,-0.167,-0.1665,-0.1661,-0.1658,0,-0.1828,-0.1853,-0.1873,-0.1902,-0.1928,-0.1961,-0.2008,-0.2032,-0.2129,-0.2151,-0.2171,-0.2157,-0.2115,-0.1963,-0.1881,-0.1822,-0.1883,-0.1795,-0.2086,-0.1757,-0.1733,-0.1726,-0.1745,-0.1623,-0.1626,-0.1629,-0.1631,-0.1632,-0.1763,-0.1762,-0.1786,-0.18,-0.1831,-0.1842,-0.1823,-0.1882,-0.1893,-0.1896,-0.1982,-0.1902,-0.19,-0.1678,-0.1589,-0.152,-0.1646,-0.1578,-0.1591,-0.1608,-0.1573,-0.1546,-0.1394,-0.1396,-0.1398,-0.14,-0.1401,0,-0.167,-0.1672,-0.1682,-0.169,-0.1668,-0.1724,-0.1746,-0.17,-0.1657,-0.1686,-0.1657,-0.1494,-0.1389,-0.1389,-0.1224,-0.1194,-0.1192,-0.115,-0.1149,-0.1184,-0.1215,-0.1162,-0.0873,-0.0872,-0.087,-0.0869,0,0,-0.1621,-0.1585,-0.1586,-0.151,-0.1511,-0.1435,-0.1413,-0.1362,-0.1348,-0.1259,-0.1214,-0.1303,-0.1344,-0.1112,-0.1055,-0.0934,-0.105,-0.0888,-0.131,-0.1343,-0.1372,-0.1457,-0.1413,0,0,0,0,0]},{"header":{"parameterUnit":"m.s-1","parameterCategory":2,"la1":30.2991,"la2":30.254,"lo1":-89.0895,"lo2":-89.0444,"dy":0.0017,"dx":0.0017,"nx":28,"ny":28,"refTime":"2023-09-18T09:00:00:Z","depth":"2","parameterNumber":3,"parameterNumberName":"V-component_of_CURRENTS"},"data":[0,0,0,0,0,0,0,0,0,0,0,0,0,0,0,0,0,0,0,0,0,0,0,0,0,0,0,0,0,0,0,0,0,0,0,0,0,0,0,0,0,0,0,0,0,0,0,0,0,0,0,0,0,0,0,0,0,0,-0.0207,-0.0206,0,-0.0139,-0.0138,-0.0137,-0.0081,-0.0081,-0.008,-0.008,0.0029,0.0032,0.0034,0,0,0,0,0,0,0,0,0,0,0,0,0,-0.0245,-0.0245,-0.0207,-0.0206,-0.0206,-0.0139,-0.0138,-0.0137,-0.0081,-0.0081,-0.008,-0.008,0.0029,0.0032,0.0034,0,0,0,0,0,0,0,0,0,0,0,0,0,-0.0207,-0.0245,-0.0207,-0.0171,-0.0167,-0.0139,-0.0138,-0.0137,-0.0082,-0.0081,-0.008,-0.0079,0.0028,0.0031,0.0035,0.0043,0,0,0.0046,0.0048,0,0,0,0,0,0,0,0,-0.021,-0.0206,-0.0177,-0.0173,-0.0169,-0.0119,-0.0112,-0.0075,-0.0082,-0.0113,-0.008,-0.0079,-0.0018,-0.001,0.0002,0.0049,0.0053,0.0047,0.0049,0.005,0.0051,0,0,0,0,0,0,0,-0.0212,-0.0208,-0.0179,-0.0176,-0.0171,-0.0143,-0.0137,-0.0104,-0.0068,-0.011,-0.0106,-0.0101,-0.0015,-0.0002,0.0005,0.0055,0.0046,0.005,0.0052,0.0053,0.0132,0.0132,0,0,0,0,0,0,-0.0226,-0.0211,-0.0181,-0.0177,-0.0189,-0.0143,-0.0136,-0.0135,-0.0069,-0.0059,-0.0101,-0.0098,-0.0008,0.0001,0.0009,0.0033,0.005,0.0054,0.0056,0.0132,0.0132,0.0132,0,0,0,0,0,0,-0.0227,-0.0224,-0.0184,-0.0193,-0.0186,-0.0144,-0.0142,-0.0134,-0.012,-0.0064,-0.0052,-0.0096,-0.0007,0.0004,0.0036,0.0037,0.0055,0.0059,0.0133,0.0132,0.0132,0.0073,0,0,0,0,0,0,-0.0229,-0.0225,-0.023,-0.0194,-0.0186,-0.0175,-0.0143,-0.0133,-0.0119,-0.0114,-0.0056,-0.0045,-0.0006,0.003,0.004,0.0042,0.0062,0.0133,0.0132,0.0132,0.0075,0.0071,0.0068,0,0,0,0,0,-0.0231,-0.0244,-0.023,-0.0227,-0.0193,-0.0175,-0.0169,-0.0135,-0.0119,-0.0119,-0.0078,-0.0046,0.0036,0.0033,0.0044,0.0048,0.0133,0.0132,0.0132,0.0077,0.0072,0.0068,0,0,0,0,0,0,-0.0265,-0.0238,-0.0223,-0.0228,-0.0206,-0.0167,-0.0165,-0.0142,-0.011,-0.0106,-0.005,-0.0036,-0.0009,0.0025,0.0021,0.007,0.009,0.0092,0.0045,0.004,0.0036,0.0026,0.0065,0,0,0,0,0,-0.0276,-0.0277,-0.0245,-0.025,-0.0242,-0.0205,-0.0194,-0.0172,-0.014,-0.0125,-0.0083,-0.0039,-0.0002,0.0022,0.0057,0.0083,0.012,0.0094,0.009,0.0086,0.0086,0.0139,0.014,0.0131,0.0131,0.0131,0,0,-0.029,-0.0277,-0.0277,-0.0258,-0.0238,-0.0233,-0.0197,-0.0188,-0.0178,-0.0118,-0.0095,-0.0055,0.0,0.0029,0.0046,0.006,0.0107,0.0086,0.0082,0.0084,0.0139,0.014,0.0141,0.0131,0.0131,0.0131,0,0,-0.0327,-0.031,-0.0324,-0.0308,-0.0286,-0.0261,-0.0262,-0.0226,-0.0203,-0.0179,-0.0132,-0.0093,-0.004,0.0006,0.0034,0.0029,0.0079,0.0039,0.0019,0.007,0.0071,0.0073,0.0113,0.0119,0.0043,0.0043,0.0043,0,-0.0346,-0.0356,-0.0326,-0.0333,-0.0324,-0.0278,-0.0287,-0.026,-0.0216,-0.0196,-0.0181,-0.0093,-0.0049,0.0001,0.0,0.0021,0.0053,0.0031,0.0065,0.0067,0.007,0.0111,0.0118,0.004,0.004,0.0041,0.0041,0,-0.0388,-0.0393,-0.0402,-0.0392,-0.0378,-0.038,-0.0338,-0.032,-0.0289,-0.0252,-0.0203,-0.014,-0.0084,-0.0064,-0.0032,0.001,0.0027,0.0047,0.0074,0.0067,0.0111,0.0119,0.0036,0.0037,0.0038,0.0039,0,0,-0.0435,-0.0433,-0.0435,-0.0442,-0.0409,-0.0407,-0.0387,-0.0354,-0.034,-0.0286,-0.0255,-0.0185,-0.0144,-0.0109,-0.0057,-0.0009,0.0035,0.0022,0.0026,0.0057,0.0141,0.0168,0.018,0.006,0.0062,0.0063,0.0161,0,-0.0476,-0.0508,-0.0488,-0.0511,-0.0521,-0.0473,-0.0458,-0.0418,-0.0373,-0.0332,-0.0251,-0.0206,-0.0162,-0.0135,-0.0079,0.0008,0.0055,0.0006,0.0148,0.0152,0.0174,0.0191,0.0163,0.025,0.0169,0.0171,0.0172,0,-0.0521,-0.0536,-0.0568,-0.0569,-0.0568,-0.057,-0.0535,-0.0515,-0.0437,-0.04,-0.0332,-0.0266,-0.018,-0.0149,-0.0,-0.0035,0.0043,0.011,0.0116,0.017,0.0196,0.0247,0.0268,0.0187,0.0185,0.0184,0.0183,0,-0.057,-0.0591,-0.062,-0.0619,-0.0608,-0.0611,-0.0598,-0.0537,-0.0519,-0.044,-0.0413,-0.0301,-0.0242,-0.0128,0.0015,0.0007,0.0177,0.0186,0.0285,0.0287,0.0307,0.0309,0.0284,0.0283,0.0283,0.0283,0.0283,0,-0.0618,-0.0643,-0.065,-0.0667,-0.07,-0.0665,-0.0673,-0.0642,-0.0585,-0.0557,-0.0454,-0.0401,-0.0234,-0.0113,0.0007,0.0179,0.0176,0.0287,0.032,0.0285,0.0284,0.0263,0.026,0.0287,0.0286,0.0285,0.0284,0,-0.0666,-0.0667,-0.0709,-0.072,-0.0727,-0.0748,-0.0741,-0.0738,-0.0675,-0.0635,-0.0612,-0.047,-0.0302,-0.0131,0.0068,0.017,0.0326,0.0384,0.0327,0.0351,0.04,0.0392,0.0501,0.0502,0.0504,0.0505,0.0507,0,-0.0693,-0.0718,-0.0762,-0.0791,-0.0803,-0.0823,-0.0834,-0.0792,-0.078,-0.0669,-0.0652,-0.0486,-0.035,-0.0048,0.0163,0.0386,0.0382,0.0475,0.0458,0.0404,0.0425,0.0414,0.0405,0.0458,0.0459,0.0459,0.046,0,-0.0744,-0.0759,-0.0794,-0.086,-0.0893,-0.0923,-0.0933,-0.0936,-0.0863,-0.0805,-0.0689,-0.057,-0.027,-0.0012,0.0272,0.039,0.0438,0.0493,0.0471,0.0403,0.0371,0.0389,0.038,0.0464,0.0464,0.0463,0.0463,0.0463,-0.0779,-0.0821,-0.0869,-0.0927,-0.097,-0.1006,-0.1018,-0.0994,-0.0958,-0.0835,-0.0724,-0.0512,-0.0266,0.0149,0.0347,0.0521,0.0514,0.0551,0.0547,0.0542,0.0516,0.0488,0.0597,0.0598,0.0598,0.0598,0.0598,0,-0.0819,-0.0866,-0.0931,-0.0997,-0.1047,-0.1053,-0.1068,-0.1038,-0.0977,-0.0829,-0.068,-0.0401,-0.0108,0.0143,0.0433,0.0599,0.0571,0.0611,0.0549,0.0544,0.0539,0.051,0.0592,0.0592,0.0593,0.0593,0,0,-0.0841,-0.0912,-0.0948,-0.1041,-0.1085,-0.1116,-0.1116,-0.1045,-0.0935,-0.0771,-0.0603,-0.0386,-0.0085,0.0119,0.0329,0.0478,0.0461,0.0478,0.0465,0.0362,0.0356,0.0486,0.0433,0,0,0,0,0]}],[{"header":{"parameterUnit":"m.s-1","parameterCategory":2,"la1":30.2991,"la2":30.254,"lo1":-89.0895,"lo2":-89.0444,"dy":0.0017,"dx":0.0017,"nx":28,"ny":28,"refTime":"2023-09-18T09:00:00:Z","depth":"4","parameterNumber":2,"parameterNumberName":"U-component_of_CURRENTS"},"data":[0,0,0,0,0,0,0,0,0,0,0,0,0,0,0,0,0,0,0,0,0,0,0,0,0,0,0,0,0,0,0,0,0,0,0,0,0,0,0,0,0,0,0,0,0,0,0,0,0,0,0,0,0,0,0,0,0,0,-0.1568,-0.1569,0,-0.1641,-0.1641,-0.1642,-0.1673,-0.1673,-0.1673,-0.1673,-0.174,-0.1742,-0.1744,0,0,0,0,0,0,0,0,0,0,0,0,0,-0.1463,-0.1464,-0.1568,-0.1569,-0.157,-0.1641,-0.1641,-0.1642,-0.1673,-0.1673,-0.1673,-0.1672,-0.1739,-0.1742,-0.1744,0,0,0,0,0,0,0,0,0,0,0,0,0,-0.1518,-0.1465,-0.1567,-0.1594,-0.1597,-0.164,-0.1642,-0.1643,-0.1673,-0.1673,-0.1673,-0.1672,-0.1739,-0.1741,-0.1744,-0.1763,0,0,-0.1752,-0.1754,0,0,0,0,0,0,0,0,-0.1515,-0.1522,-0.1589,-0.1592,-0.1596,-0.1648,-0.1629,-0.1683,-0.1673,-0.1643,-0.1673,-0.1672,-0.171,-0.1715,-0.1727,-0.1766,-0.1769,-0.1753,-0.1754,-0.1756,-0.1756,0,0,0,0,0,0,0,-0.1511,-0.1519,-0.1595,-0.159,-0.1594,-0.1605,-0.1613,-0.164,-0.1675,-0.1646,-0.1648,-0.1658,-0.1711,-0.1724,-0.1729,-0.177,-0.1753,-0.1755,-0.1757,-0.1758,-0.1866,-0.1867,0,0,0,0,0,0,-0.1504,-0.1515,-0.1593,-0.1598,-0.1556,-0.1607,-0.1616,-0.1631,-0.1675,-0.1682,-0.1658,-0.1659,-0.172,-0.1726,-0.1731,-0.1796,-0.1756,-0.1758,-0.176,-0.1864,-0.1866,-0.1867,0,0,0,0,0,0,-0.1502,-0.1511,-0.159,-0.1559,-0.157,-0.1609,-0.1626,-0.1632,-0.167,-0.1685,-0.1691,-0.1692,-0.172,-0.1728,-0.1775,-0.1797,-0.1759,-0.1762,-0.1863,-0.1865,-0.1866,-0.19,0,0,0,0,0,0,-0.1498,-0.1509,-0.1532,-0.1558,-0.1571,-0.163,-0.1626,-0.1634,-0.1675,-0.1678,-0.1715,-0.172,-0.172,-0.1771,-0.1777,-0.1801,-0.1764,-0.1861,-0.1864,-0.1866,-0.1897,-0.1903,-0.1907,0,0,0,0,0,-0.1495,-0.1518,-0.1533,-0.1543,-0.1596,-0.1632,-0.164,-0.1666,-0.1677,-0.1699,-0.1724,-0.172,-0.1789,-0.1774,-0.1782,-0.1806,-0.186,-0.1863,-0.1866,-0.1895,-0.1902,-0.1907,0,0,0,0,0,0,-0.1485,-0.1525,-0.1541,-0.1577,-0.161,-0.1637,-0.1665,-0.1683,-0.1722,-0.1732,-0.1742,-0.1749,-0.1795,-0.1801,-0.1784,-0.1843,-0.1822,-0.1827,-0.1842,-0.1848,-0.1853,-0.1842,-0.1766,0,0,0,0,0,-0.1494,-0.1524,-0.1559,-0.1592,-0.1611,-0.1645,-0.1669,-0.1688,-0.1719,-0.1737,-0.1763,-0.1789,-0.1809,-0.1829,-0.185,-0.1891,-0.1874,-0.1909,-0.1914,-0.1919,-0.1915,-0.1913,-0.1917,-0.1876,-0.1876,-0.1876,0,0,-0.1501,-0.1526,-0.1545,-0.1592,-0.1621,-0.1654,-0.166,-0.1704,-0.1733,-0.1738,-0.1796,-0.1812,-0.1825,-0.1864,-0.1885,-0.1874,-0.1922,-0.1922,-0.1925,-0.192,-0.1916,-0.192,-0.1923,-0.1878,-0.1878,-0.1877,0,0,-0.1515,-0.1552,-0.1579,-0.161,-0.1659,-0.168,-0.1699,-0.1745,-0.1771,-0.1824,-0.1829,-0.1859,-0.1907,-0.1911,-0.1919,-0.1967,-0.1948,-0.198,-0.2,-0.1998,-0.2001,-0.2003,-0.1985,-0.1985,-0.1983,-0.1983,-0.1983,0,-0.1523,-0.1559,-0.1593,-0.1625,-0.1653,-0.1694,-0.1726,-0.176,-0.1817,-0.1838,-0.1848,-0.1908,-0.1923,-0.1951,-0.1966,-0.1977,-0.1968,-0.1975,-0.2003,-0.2005,-0.2006,-0.1987,-0.1987,-0.1985,-0.1985,-0.1985,-0.1985,0,-0.1547,-0.1588,-0.1608,-0.1659,-0.1695,-0.1732,-0.1777,-0.1822,-0.186,-0.1885,-0.1937,-0.1957,-0.1986,-0.1999,-0.1999,-0.2023,-0.201,-0.2007,-0.1983,-0.2012,-0.199,-0.199,-0.1988,-0.1987,-0.1987,-0.1986,0,0,-0.1527,-0.1609,-0.1617,-0.1648,-0.1717,-0.1745,-0.1803,-0.1855,-0.189,-0.1943,-0.1979,-0.2016,-0.2028,-0.2036,-0.2042,-0.2045,-0.2051,-0.2037,-0.2036,-0.201,-0.2038,-0.1908,-0.1894,-0.2055,-0.2056,-0.2056,-0.2016,0,-0.1535,-0.1592,-0.1634,-0.1694,-0.1726,-0.1784,-0.1831,-0.1886,-0.1932,-0.1979,-0.2002,-0.2039,-0.2041,-0.2059,-0.2063,-0.2058,-0.2052,-0.2061,-0.202,-0.2019,-0.1892,-0.189,-0.2057,-0.2015,-0.2015,-0.2015,-0.2015,0,-0.1534,-0.1574,-0.1631,-0.1711,-0.1732,-0.1777,-0.1854,-0.19,-0.1968,-0.2004,-0.2042,-0.2064,-0.2085,-0.208,-0.2075,-0.2084,-0.2062,-0.205,-0.2048,-0.1912,-0.1886,-0.1982,-0.2013,-0.2013,-0.2013,-0.2013,-0.2014,0,-0.1481,-0.1568,-0.1612,-0.1641,-0.1737,-0.178,-0.1831,-0.1907,-0.1945,-0.2015,-0.2045,-0.2079,-0.2094,-0.2085,-0.2067,-0.2076,-0.2045,-0.2051,-0.1909,-0.19,-0.2016,-0.2014,-0.2032,-0.2032,-0.2033,-0.2033,-0.2033,0,-0.1451,-0.1492,-0.1598,-0.162,-0.1681,-0.1755,-0.1819,-0.1877,-0.1949,-0.1978,-0.2048,-0.2059,-0.2098,-0.209,-0.2069,-0.1974,-0.2043,-0.1898,-0.1876,-0.2031,-0.2031,-0.2014,-0.2013,-0.2031,-0.2032,-0.2032,-0.2032,0,-0.138,-0.1451,-0.1512,-0.1621,-0.1657,-0.1698,-0.1805,-0.1838,-0.1922,-0.196,-0.1981,-0.2046,-0.2024,-0.2036,-0.2013,-0.1952,-0.1892,-0.1841,-0.1995,-0.1985,-0.1749,-0.175,-0.1673,-0.1668,-0.1663,-0.166,-0.1657,0,-0.1345,-0.137,-0.1493,-0.1527,-0.1582,-0.1657,-0.1701,-0.1807,-0.1835,-0.1926,-0.1923,-0.1947,-0.1969,-0.1819,-0.1858,-0.1789,-0.1771,-0.1734,-0.1747,-0.1723,-0.171,-0.1718,-0.1725,-0.165,-0.1649,-0.1648,-0.1647,0,-0.1273,-0.1332,-0.138,-0.1449,-0.1509,-0.1562,-0.1631,-0.1641,-0.1743,-0.1842,-0.18,-0.1776,-0.1746,-0.1716,-0.1671,-0.1631,-0.1758,-0.169,-0.1699,-0.171,-0.1695,-0.1688,-0.1699,-0.1632,-0.1634,-0.1635,-0.1636,0,-0.1219,-0.1237,-0.1303,-0.1349,-0.1419,-0.143,-0.149,-0.151,-0.1548,-0.1654,-0.1632,-0.1658,-0.1718,-0.1631,-0.1594,-0.1538,-0.1518,-0.1475,-0.1495,-0.1512,-0.1479,-0.1437,-0.126,0,0,0,0,0,-0.1154,-0.1155,-0.1192,-0.1234,-0.1295,-0.1326,-0.1421,-0.1482,-0.1589,-0.151,-0.1563,-0.1524,-0.1463,-0.1483,-0.1388,-0.1527,-0.1531,-0.1413,-0.1495,-0.1549,-0.1567,-0.1543,0,0,0,0,0,0,-0.111,-0.1141,-0.115,-0.1116,-0.1116,-0.1163,-0.1214,-0.1291,-0.1259,-0.1371,-0.1338,-0.1423,-0.1381,-0.1473,-0.1348,-0.1354,-0.1374,-0.1441,-0.1437,-0.154,-0.1555,-0.1569,-0.155,0,0,0,0,0]},{"header":{"parameterUnit":"m.s-1","parameterCategory":2,"la1":30.2991,"la2":30.254,"lo1":-89.0895,"lo2":-89.0444,"dy":0.0017,"dx":0.0017,"nx":28,"ny":28,"refTime":"2023-09-18T09:00:00:Z","depth":"4","parameterNumber":3,"parameterNumberName":"V-component_of_CURRENTS"},"data":[0,0,0,0,0,0,0,0,0,0,0,0,0,0,0,0,0,0,0,0,0,0,0,0,0,0,0,0,0,0,0,0,0,0,0,0,0,0,0,0,0,0,0,0,0,0,0,0,0,0,0,0,0,0,0,0,0,0,-0.0173,-0.0173,0,-0.0126,-0.0125,-0.0124,-0.0088,-0.0087,-0.0087,-0.0087,-0.0001,0.0001,0.0003,0,0,0,0,0,0,0,0,0,0,0,0,0,-0.0199,-0.0199,-0.0173,-0.0172,-0.0172,-0.0126,-0.0125,-0.0124,-0.0088,-0.0087,-0.0087,-0.0087,-0.0001,0.0001,0.0004,0,0,0,0,0,0,0,0,0,0,0,0,0,-0.0172,-0.0199,-0.0173,-0.0149,-0.0146,-0.0126,-0.0125,-0.0124,-0.0088,-0.0087,-0.0087,-0.0087,-0.0002,0.0001,0.0004,0.0015,0,0,0.0013,0.0015,0,0,0,0,0,0,0,0,-0.0174,-0.0171,-0.0153,-0.0151,-0.0148,-0.0113,-0.0103,-0.0076,-0.0088,-0.0109,-0.0087,-0.0086,-0.0036,-0.003,-0.0021,0.0019,0.0023,0.0014,0.0016,0.0017,0.0018,0,0,0,0,0,0,0,-0.0176,-0.0173,-0.0153,-0.0153,-0.0149,-0.0129,-0.0125,-0.0097,-0.0073,-0.0107,-0.0104,-0.0101,-0.0034,-0.0024,-0.0018,0.0024,0.0014,0.0016,0.0018,0.0019,0.0086,0.0086,0,0,0,0,0,0,-0.0186,-0.0175,-0.0155,-0.0152,-0.0161,-0.0129,-0.0125,-0.0124,-0.0074,-0.0067,-0.0101,-0.01,-0.0029,-0.0022,-0.0015,0.0003,0.0017,0.002,0.0022,0.0086,0.0086,0.0086,0,0,0,0,0,0,-0.0187,-0.0185,-0.0157,-0.0163,-0.0158,-0.013,-0.0129,-0.0123,-0.0115,-0.0071,-0.0063,-0.0099,-0.0029,-0.0019,0.0006,0.0007,0.0021,0.0024,0.0086,0.0086,0.0086,0.0038,0,0,0,0,0,0,-0.0188,-0.0185,-0.019,-0.0164,-0.0158,-0.0151,-0.0129,-0.0122,-0.0114,-0.0111,-0.0066,-0.0058,-0.0028,0.0001,0.0009,0.0011,0.0026,0.0086,0.0086,0.0086,0.004,0.0036,0.0034,0,0,0,0,0,-0.0189,-0.0198,-0.019,-0.0188,-0.0165,-0.0152,-0.0147,-0.0124,-0.0114,-0.0115,-0.0084,-0.0059,0.0006,0.0003,0.0013,0.0016,0.0086,0.0086,0.0086,0.0041,0.0037,0.0034,0,0,0,0,0,0,-0.0213,-0.0195,-0.0185,-0.0189,-0.0174,-0.0146,-0.0146,-0.013,-0.0107,-0.0104,-0.0061,-0.0051,-0.0029,-0.0001,-0.0005,0.0034,0.0051,0.0052,0.0014,0.001,0.0007,-0.0001,0.0029,0,0,0,0,0,-0.0221,-0.0224,-0.0201,-0.0206,-0.0201,-0.0175,-0.0167,-0.0153,-0.0129,-0.0118,-0.0086,-0.0052,-0.0023,-0.0003,0.0024,0.0047,0.0078,0.0055,0.0052,0.0049,0.0049,0.0098,0.0099,0.0085,0.0085,0.0085,0,0,-0.0232,-0.0223,-0.0224,-0.0211,-0.0199,-0.0197,-0.0169,-0.0165,-0.0159,-0.0112,-0.0097,-0.0065,-0.0021,0.0002,0.0015,0.0027,0.0068,0.0049,0.0046,0.0047,0.0098,0.01,0.0101,0.0085,0.0085,0.0085,0,0,-0.0259,-0.0248,-0.026,-0.025,-0.0237,-0.0219,-0.0221,-0.0195,-0.018,-0.0163,-0.0126,-0.0094,-0.0054,-0.0016,0.0007,0.0003,0.0045,0.0011,-0.0005,0.0042,0.0044,0.0046,0.0078,0.0083,0.0015,0.0015,0.0015,0,-0.0274,-0.0284,-0.0262,-0.0269,-0.0264,-0.0233,-0.0241,-0.0222,-0.019,-0.0176,-0.0166,-0.0096,-0.0061,-0.0019,-0.002,-0.0003,0.0025,0.0004,0.0038,0.0041,0.0044,0.0076,0.0083,0.0012,0.0013,0.0013,0.0013,0,-0.0305,-0.0313,-0.032,-0.0317,-0.0309,-0.0312,-0.0283,-0.0271,-0.025,-0.0223,-0.0185,-0.0134,-0.0089,-0.0072,-0.0047,-0.0008,0.0004,0.0023,0.0046,0.0042,0.0077,0.0084,0.0009,0.001,0.001,0.0011,0,0,-0.0337,-0.0342,-0.0346,-0.0355,-0.0334,-0.0334,-0.0323,-0.03,-0.0291,-0.025,-0.0227,-0.017,-0.0137,-0.0108,-0.0065,-0.0021,0.0018,0.0005,0.0009,0.0033,0.0114,0.0095,0.0102,0.0044,0.0046,0.0047,0.0126,0,-0.037,-0.0399,-0.0387,-0.0411,-0.042,-0.0389,-0.038,-0.0352,-0.032,-0.0289,-0.0222,-0.0188,-0.0151,-0.013,-0.0079,-0.0005,0.0037,-0.0006,0.0117,0.0121,0.0103,0.011,0.005,0.0132,0.0134,0.0135,0.0136,0,-0.0401,-0.0417,-0.0448,-0.0457,-0.0458,-0.0466,-0.0446,-0.0434,-0.0375,-0.0347,-0.0291,-0.0238,-0.0165,-0.0138,-0.0008,-0.0038,0.003,0.0088,0.0093,0.0099,0.0117,0.0141,0.015,0.0149,0.0148,0.0147,0.0146,0,-0.0434,-0.0459,-0.0489,-0.0491,-0.0492,-0.0502,-0.0498,-0.0453,-0.0443,-0.0382,-0.0363,-0.0266,-0.0219,-0.0117,0.0001,-0.0001,0.014,0.0155,0.0204,0.0203,0.0217,0.0214,0.0243,0.0243,0.0243,0.0243,0.0242,0,-0.0463,-0.049,-0.0513,-0.053,-0.0566,-0.0545,-0.0562,-0.0541,-0.0501,-0.0483,-0.0398,-0.0359,-0.0212,-0.0112,-0.0007,0.0119,0.0138,0.0202,0.0226,0.0193,0.0187,0.0221,0.0218,0.0246,0.0245,0.0244,0.0244,0,-0.049,-0.0503,-0.0547,-0.0572,-0.0586,-0.061,-0.0622,-0.0624,-0.0581,-0.0554,-0.0537,-0.0423,-0.029,-0.0145,0.0028,0.0101,0.0227,0.0266,0.021,0.023,0.0259,0.0252,0.0326,0.0327,0.0327,0.0327,0.0327,0,-0.0504,-0.0529,-0.0589,-0.0623,-0.0643,-0.0674,-0.0692,-0.0669,-0.0663,-0.0588,-0.0575,-0.0451,-0.0358,-0.0126,0.0019,0.0217,0.0242,0.0296,0.0286,0.0253,0.0269,0.0262,0.0255,0.0327,0.0327,0.0327,0.0327,0,-0.053,-0.0558,-0.0594,-0.0668,-0.0712,-0.0749,-0.077,-0.077,-0.0723,-0.0693,-0.0589,-0.0459,-0.0311,-0.0129,0.0023,0.0163,0.0256,0.0297,0.0298,0.0289,0.0254,0.0269,0.0262,0.0327,0.0327,0.0327,0.0327,0,-0.0551,-0.0587,-0.0643,-0.0702,-0.0763,-0.08,-0.0807,-0.0782,-0.0764,-0.0671,-0.0638,-0.0464,-0.0359,-0.0156,-0.0016,0.0119,0.0151,0.0185,0.0192,0.0193,0.0128,0.0063,0.0099,0,0,0,0,0,-0.0562,-0.0606,-0.067,-0.0735,-0.0795,-0.0825,-0.0846,-0.0835,-0.0792,-0.0723,-0.0674,-0.0528,-0.0301,-0.0202,-0.0068,-0.003,0.0158,0.0128,0.0196,0.0329,0.0328,0.0273,0,0,0,0,0,0,-0.0571,-0.0635,-0.067,-0.0746,-0.0792,-0.0848,-0.086,-0.0833,-0.0781,-0.0719,-0.0594,-0.0513,-0.0292,-0.0374,-0.0069,-0.0029,0.0027,0.024,0.0242,0.0329,0.0329,0.0328,0.0271,0,0,0,0,0]}]]